sat.trackr.live / text

‹ back to catalog

ONEWEB-0029

NORAD 45445 · 2020-020X

PAYLOAD ACTIVE UNKNOWN

§ Identity

Operator
Country
UK
Launch date
2020-03-21
Launch site
TYMSC
Launch vehicle
Mass (kg)
RCS (m²)

Purposes: comms

External: N2YO · Heavens-Above · Gunter

§ Orbital elements

Epoch: 2026-05-25T03:18:36.966240Z

Period
109.85 min
Inclination
87.8903°
Eccentricity
0.0001951
Mean motion
13.10885914 rev/d
Perigee alt
1,218.3 km
Apogee alt
1,221.2 km
Semi-major
7,597.9 km
B*
-1.7898e-4
RAAN
25.6553°
Arg perigee
79.4672°
Mean anomaly
280.6676°
Rev number
29,963

§ Raw data

ONEWEB-00291 45445U 20020X   26145.13792785 -.00000050  00000+0 -17898-3 0  99982 45445  87.8903  25.6553 0001951  79.4672 280.6676 13.10885914299630

JSON: /api/v1/satellites/45445 · /tle

For live sub-satellite position, see the globe view (requires WebGL).

§ Visibility from observer

Set your observer location to see the next 7 days of passes ≥ 10°. The values pass through the URL so the page stays shareable.

No JS? Fill the form by hand. The geolocation button needs JavaScript.